#timestamp,LO_Frequency,Hit,StdDev 
1512896415.6,286046998.5,N
1512896435.4,286046998.6,N
1512896455.3,286046998.7,N
1512896475.1,286046995.1,N
1512896495.9,286046997.7,N
1512896515.7,286046996.8,N
1512896535.5,286046997.2,N
1512896555.4,286046999.5,N
1512896575.2,286046998.6,N
1512896595.1,286046999.5,N
1512896596.0,286046999.5,N
1512896615.8,286046995.1,N
1512896635.6,286046996.2,N
1512896655.5,286046998.0,N
1512896675.3,286046997.9,N
1512896695.1,286047001.0,N
1512896715.9,286047001.1,N
1512896735.7,286046998.9,N
1512896755.6,286047001.2,N
1512896775.4,286046998.2,N
1512896795.2,286046997.8,N
1512896815.1,286047000.9,N
1512896816.0,286047000.9,N
1512896835.8,286046998.6,N
1512896855.7,286047000.3,N
1512896875.5,286046999.7,N
1512896895.3,286047001.7,N
1512896915.2,286047004.4,N
1512896935.0,286047003.6,N
1512896935.9,286047003.6,N
1512896955.7,286047003.7,N
1512896975.6,286047001.7,N
1512896995.4,286047001.2,N
1512897015.3,286046998.5,N
1512897035.1,286047000.6,N
1512897036.0,286047000.6,N
1512897055.8,286047002.7,N
1512897075.7,286046998.7,N
1512897095.5,286046999.5,N
1512897115.4,286047001.2,N
1512897135.2,286047002.0,N
1512897155.0,286047001.3,N
1512897155.9,286047001.3,N
1512897175.8,286047002.5,N
1512897195.6,286047000.5,N
1512897215.4,286047000.9,N
1512897235.3,286047001.8,N
1512897255.1,286047001.3,N
1512897275.9,286047001.5,N
1512897295.7,286047002.1,N
1512897315.5,286046999.8,N
1512897335.4,286047002.1,N
1512897355.2,286047002.8,N
1512897375.0,286047002.8,N
1512897376.0,286047002.8,N
1512897395.8,286047003.8,N
1512897415.6,286047001.5,N
1512897435.5,286047004.4,Y
1512897455.3,286046999.7,P
1512897475.1,286046999.8,N
1512897495.9,286047001.9,N
1512897515.7,286047001.6,N
1512897535.6,286047004.3,Y
1512897555.4,286047002.8,P
1512897575.2,286047002.0,N
1512897595.1,286047001.4,N
1512897596.0,286047001.4,N
1512897615.8,286047002.6,Y
1512897635.7,286046998.5,P
1512897655.5,286046999.0,N
1512897675.3,286046996.7,N
1512897695.2,286046999.2,N
1512897715.0,286046997.0,N
1512897715.9,286046997.0,N
1512897735.8,286046997.1,N
1512897755.6,286046998.9,N
1512897775.4,286047001.2,N
1512897795.3,286046999.0,N
1512897815.1,286046999.1,N
1512897835.9,286046998.9,N
1512897855.7,286046999.6,N
1512897875.5,286046998.2,N
1512897895.4,286047000.9,N
1512897915.2,286046998.1,N
1512897935.0,286047000.4,N
1512897935.9,286047000.4,N
1512897955.8,286047000.3,N
1512897975.6,286046998.1,N
1512897995.5,286047000.3,N
1512898015.3,286046999.9,N
1512898035.1,286047000.9,N
1512898055.9,286046998.2,N
1512898075.7,286047000.7,N
1512898095.5,286047000.7,N
1512898115.4,286047000.4,N
1512898135.2,286046995.9,N
1512898155.1,286046993.9,Y
1512898156.0,286046993.9,P
1512898175.8,286046994.5,N
1512898195.6,286046995.7,N
1512898215.5,286046997.3,N
1512898235.3,286046996.2,N
1512898255.2,286046995.3,N
1512898275.9,286046996.5,N
1512898295.7,286046997.4,N
1512898315.6,286046999.4,N
1512898335.4,286046998.9,N
1512898355.3,286046998.1,N
1512898375.1,286046997.1,N
1512898376.0,286046997.1,N
1512898395.8,286046996.4,N
1512898415.7,286046994.1,Y
1512898435.5,286046996.6,P
1512898455.3,286046998.2,P
1512898475.2,286046999.4,N
1512898495.0,286046998.4,N
1512898495.9,286046998.4,N
1512898515.8,286047000.0,N
1512898535.6,286047002.0,N
1512898555.4,286047001.2,N
1512898575.3,286046996.5,N
1512898595.1,286046999.2,N
1512898615.9,286047000.3,N
1512898635.7,286046999.9,N
1512898655.5,286047000.7,N
1512898675.4,286047000.8,N
1512898695.2,286046998.5,N
1512898715.0,286046998.1,N
1512898715.9,286046998.1,N
1512898735.8,286046996.6,N
1512898755.6,286047001.0,N
1512898775.5,286047002.7,N
1512898795.3,286047000.3,N
1512898815.1,286047000.8,N
1512898835.9,286046999.3,N
1512898855.7,286046999.2,N
1512898875.6,286046997.6,N
1512898895.4,286046997.5,N
1512898915.2,286046996.5,N
1512898935.1,286046997.2,N
1512898936.0,286046997.2,N
1512898955.8,286046996.5,N
1512898975.6,286046999.5,N
1512898995.5,286046999.3,N
1512899015.3,286046999.1,N
1512899035.2,286047000.8,N
1512899055.9,286047000.0,N
1512899075.7,286046996.5,N
1512899095.6,286046997.0,N
1512899115.4,286046995.6,N
1512899135.3,286046994.3,Y
1512899155.1,286046993.4,P
1512899156.0,286046993.4,N
1512899175.8,286046994.0,N
1512899195.7,286046996.4,N
1512899215.5,286046995.9,N
1512899235.3,286046995.0,N
1512899255.2,286046994.0,Y
1512899275.0,286046998.1,P
1512899275.9,286046998.1,N
1512899295.8,286046998.6,N
1512899315.6,286046999.3,N
1512899335.4,286046998.8,N
1512899355.3,286046999.6,N
1512899375.1,286046998.0,N
1512899395.9,286046998.1,N
1512899415.7,286046998.1,N
1512899435.5,286046997.4,N
1512899455.4,286047000.9,N
1512899475.2,286047001.0,N
1512899495.1,286047001.0,N
1512899496.0,286047001.0,N
1512899515.8,286047000.4,N
1512899535.6,286047002.7,N
1512899555.5,286047002.5,N
1512899575.3,286047002.0,N
1512899595.2,286046998.8,N
1512899615.9,286047001.2,N
1512899635.7,286047000.5,N
1512899655.6,286047000.4,N
1512899675.4,286046998.5,N
1512899695.2,286047002.5,N
1512899715.1,286047002.7,N
1512899716.0,286047002.7,N
1512899735.8,286046998.1,N
1512899755.7,286047000.2,N
1512899775.5,286046998.5,N
1512899795.3,286046998.9,N
1512899815.2,286046995.2,N
1512899835.0,286046995.1,N
1512899835.9,286046995.1,N
1512899855.8,286046997.9,N
1512899875.6,286046997.3,N
1512899895.4,286046996.2,N
1512899915.3,286046997.5,N
1512899935.1,286046996.1,N
1512899955.8,286046996.3,N
1512899975.7,286046993.5,N
1512899995.5,286046992.9,N
